Regional Weather Roundup
Issued by NWS

Home | Current Version | Previous Version | Text Only | Print | Product List | Glossary On
Versions: 1 2 3 4 5 6 7 8 9 10 11 12 13 14 15 16 17 18 19 20 21 22 23 24 25 26 27 28 29 30 31 32 33 34 35 36 37 38 39 40 41 42 43 44 45 46 47 48 49 50
000
ASUS44 KLUB 190501
RWRTX
WEST TEXAS WEATHER ROUNDUP
NATIONAL WEATHER SERVICE LUBBOCK TX
1200 AM CDT SAT APR 19 2014

NOTE: "FAIR" INDICATES FEW OR NO CLOUDS BELOW 12,000 FEET WITH NO
SIGNIFICANT WEATHER AND/OR OBSTRUCTIONS TO VISIBILITY.

TXZ004-006>008-010-012-014-016-OKZ002-190600-
TEXAS PANHANDLE/OKLAHOMA PANHANDLE

CITY           SKY/WX    TMP DP  RH WIND       PRES   REMARKS
AMARILLO       CLOUDY    60  43  53 S21       30.08F
BORGER         CLOUDY    60  44  55 S16G22    30.07S
DALHART        MOCLDY    60  43  53 S18       30.05F
GUYMON         CLOUDY    57  45  64 S14G22    30.01F
$$

TXZ026-029-035-045-048-190600-
SOUTHERN PANHANDLE/SOUTH PLAINS/ROLLING PLAINS

CITY           SKY/WX    TMP DP  RH WIND       PRES   REMARKS
CHILDRESS      CLOUDY    56  47  71 SE9       30.12S
LUBBOCK        MOCLDY    57  41  55 SE12      30.10F
$$

TXZ052-054-060>062-072-078-127-140-154-169-190600-
PERMIAN BASIN/CONCHO VALLEY/BIG COUNTRY/EDWARDS PLATEAU

CITY           SKY/WX    TMP DP  RH WIND       PRES   REMARKS
ABILENE        CLEAR     60  47  61 SE10      30.13R
BROWNWOOD      PTCLDY    61  50  67 SE7       30.15R
JUNCTION       CLEAR     65  51  60 E3        30.14R
MIDLAND        MOCLDY    63  44  50 SE13      30.10R
ODESSA         MOCLDY    66  46  48 S14       30.10S
SAN ANGELO     CLEAR     64  44  48 SE8       30.11R
WINK           CLOUDY    68  47  46 SE17G25   30.04F
$$

TXZ055-058-074-075-080-082-190600-
FAR WEST/SOUTHWEST MOUNTAINS/TRANS PECOS

CITY           SKY/WX    TMP DP  RH WIND       PRES   REMARKS
DRYDEN           N/A     67  51  56 E10       30.07S
EL PASO        LGT RAIN  73  38  27 S12       30.02R
FORT STOCKTON  MOCLDY    64  48  56 SE21G31   30.07F
GUADALUPE PASS CLOUDY    59  45  59 NE32      30.12S
MARFA          CLEAR     57  46  67 S7        30.15S
PECOS          CLOUDY    66  48  52 SE18G26   30.03F
PRESIDIO       FAIR      70  51  50 NE13G23   30.01S
$$

TXZ014-016-019-021>030-083-190600
TEXAS TECH WEST TEXAS MESONET/TEXAS PANHANDLE/NORTHERN SOUTH PLAINS

CITY           SKY/WX    TMP DP  RH WIND       PRES   REMARKS
ABERNATHY 5ENE   N/A     54  41  61 SE12      30.12S
AMARILLO 9NNE    N/A     61  44  54 S23       30.05F
AMARILLO 7SSE    N/A     57  43  59 S15       30.10S
AMHERST 1NE      N/A     58  44  58 SE12      30.10F
BOOTLEG 11WNW    N/A     56  43  62 S18       30.10S
CANADIAN 6E      N/A     55  47  74 SE9       30.08S
CAPROCK CYN SP   N/A     56  44  65 S10       30.12S
CHILDRESS 2NNE   N/A     55  47  75 SE9       30.11S
CLARENDON 2WSW   N/A     57  45  63 SE13      30.11S
CLAUDE 12SW      N/A     59  43  54 S14       30.10S
DIMMITT 2NE      N/A     54  43  67 S16       30.10S
FLOYDADA 2NNE    N/A     53  40  61 SE9       30.12S
FRIONA 2NE       N/A     56  44  63 S14       30.10S
GOODLETT 3W      N/A     56  48  74 SE6       30.11R
HART 3N          N/A     53  44  71 SE8       30.10F
HEREFORD 2NW     N/A     57  43  59 S10       30.09F
MCLEAN 1E        N/A     54  48  80 SE13      30.10S
MEMPHIS 1NE      N/A     56  47  70 SE5       30.11S
MULESHOE 2SSW    N/A     58  44  61 SE13      30.10S
OLTON 6S         N/A     54  42  64 SE10      30.10F
PALO DURO SP     N/A     60  43  52 S13       30.11S
PAMPA 2E         N/A     54  46  73 SE20      30.09S
PLAINVIEW 1S     N/A     56  43  61 SE9       30.11S
SILVERTON 7ESE   N/A     55  42  63 SE12      30.12S
TULIA 2ENE       N/A     53  43  70 SE9       30.11S
TURKEY 2WSW      N/A     55  45  69 SE9       30.10F
UMBARGER 3NNE    N/A     57  44  61 S13       30.10S
$$

TXZ033>036-039>041-045>048-190600
TEXAS TECH WEST TEXAS MESONET/SOUTH PLAINS

CITY           SKY/WX    TMP DP  RH WIND       PRES   REMARKS
AIKEN 3WSW       N/A     53  43  67 SE10      30.12F
ANDREWS 2NE      N/A     59  42  53 SE6       30.11R
ANTON 6SSW       N/A     55  43  62 SE9       30.11S
BROWNFIELD 2S    N/A     53  41  65 SE9       30.11S
DENVR CTY 7WNW   N/A     58  42  56 SE12      30.10S
GAIL 2ESE        N/A     60  43  54 SE8       30.11R
LAMESA 2SE       N/A     59  43  55 SE10      30.11F
LEVELLAND 4S     N/A     56  42  58 SE9       30.10F
LUBBOCK 3WNW     N/A     60  42  52 SE9       30.11F
MORTON 1ENE      N/A     57  43  59 SE10      30.10S
ODONNELL 1N      N/A     57  41  54 SE8       30.11S
PLAINS 3N        N/A     58  43  58 SE12      30.10S
RALLS 1SE        N/A     56  42  59 SE10      30.12F
REESE CENTER     N/A     60  42  52 SE14      30.11S
SEAGRAVES 1SW    N/A     59  44  57 SE7       30.10S
SEMINOLE 2NNE    N/A     57  43  60 SE9       30.10S
SLATON 2NE       N/A     57  42  57 E8        30.11F
SNYDER 3E        N/A     59  42  53 SE12      30.11S
SUNDOWN 8SW      N/A     57  42  59 SE12      30.10F
TAHOKA 3NNE      N/A     52  39  59 SE7       30.11S
WOLFFORTH 6SSW   N/A     56  41  56 SE10      30.11S
$$

TXZ031-032-036>038-042>044-190600-
TEXAS TECH WEST TEXAS MESONET/ROLLING PLAINS

CITY           SKY/WX    TMP DP  RH WIND       PRES   REMARKS
ASPERMONT 3NE    N/A     59  45  58 SE7       30.11S
FLUVANNA 3WNW    N/A     59  42  51 SE10      30.11F
GRAHAM 5SSW      N/A     59  42  53 SE10      30.11F
GUTHRIE 10WSW    N/A     56  45  65 SE7       30.11S
HASKELL 1NW      N/A     60  48  62 SE7       30.12R
JAYTON 1SSE      N/A     58  45  61 SE9       30.11S
KNOX CITY 3NW    N/A     60  47  60 SE9       30.11S
LK A HENRY 1NW   N/A     57  43  59 SE5       30.10S
NORTHFIELD 1S    N/A     58  47  66 SE12      30.11S
ODELL 4ENE       N/A     58  51  76 SE9       30.13S
PADUCAH 10SW     N/A     56  46  70 SE6       30.11S
POST 1NE         N/A     58  42  55 SE3       30.10F
RRING SPRGS 3N   N/A     53  45  73 S6        30.12S
SEYMOUR 3NW      N/A     56  50  79 SE7       30.12S
SPUR 1W          N/A     58  44  58 SE6       30.10S
WEINERT 2NNE     N/A     59  48  66 SE8       30.12S
WHITE RVR 6NE    N/A     58  43  58 E9        30.11F
$$

TXZ052-054-060>062-072-078-127-140-154-169-190600-
TEXAS TECH WEST TEXAS MESONET/PERMIAN BASIN/
CONCHO VALLEY/BIG COUNTRY/EDWARDS PLATEAU

CITY           SKY/WX    TMP DP  RH WIND       PRES   REMARKS
COYANOSA 2N      N/A     67  47  49 SE18      30.06S
JUNCTION 1SSW    N/A     66  52  61 S5        30.14R
MERTZON 3NNE     N/A     61  44  53 E2        30.12S
SAN ANGELO 7NW   N/A     62  42  49 E7        30.12R
STRLNG CT 4WSW   N/A     61  43  51 E8        30.12S
ST LAWRNCE 5SW   N/A     60  42  51 SE9       30.12R
SWEETWATR 11SW   N/A     60  46  59 SE9       30.13S
WALL 1E          N/A     63  45  52 E13       30.12R
$$

TXZ055-058-074-075-080-082-190600-
TEXAS TECH WEST TEXAS MESONET/FAR WEST/SOUTHWEST MOUNTAINS/TRANS PECOS

CITY           SKY/WX    TMP DP  RH WIND       PRES   REMARKS
PRSMN GAP BBNP   N/A     66  50  57 N14       30.06S
$$



USA.gov is the U.S. government's official web portal to all federal, state and local government web resources and services.